Simultaneous Nadir Overpasses (SNOs) Predictions

Prediction of SNOs between GOES-17 and TERRA Satellite Orbit:

Table of predicted SNOs for the next 14.0 days since TLE Epoch: 8/17/2024
Index Date Time (GOES-17) GOES-17 Lat,Lon TERRA Lat,Lon Distance(km) Time Diff (sec)
1 08/18/2024 16:31:50 0.01,-104.72 -0.60,-101.91 319.38 80
2 08/19/2024 04:51:48 -0.01,-104.68 -0.44,-106.77 236.99 80
3 08/21/2024 04:31:25 -0.00,-104.68 0.44,-102.49 248.03 80
4 08/21/2024 16:51:15 0.00,-104.71 0.56,-107.32 296.12 80
5 08/23/2024 16:36:11 0.00,-104.71 -0.33,-103.04 189.80 80
6 08/24/2024 04:56:10 -0.00,-104.68 -0.67,-107.90 366.07 80
7 08/26/2024 04:35:45 -0.01,-104.67 0.22,-103.62 120.10 80
8 08/26/2024 16:55:34 0.01,-104.71 0.79,-108.44 423.98 80
9 08/28/2024 16:40:28 0.02,-104.70 -0.12,-104.16 62.71 80
10 08/29/2024 05:00:26 -0.02,-104.67 -0.91,-109.01 492.79 80
